Weather in Nizhyn

Ukraine / Chernihiv Region     51°02′47″N   31°52′48″E
temp.,
°C
wind,
m/s
gust,
m/s
humid.,
%
clouds,
%
prec.,
mm/h
press.,
hPa
HPBL,
m
6 may, thu
thu600:00+13s71566100 0.0 1008703
03:00+10s81670100 0.4 1007699
06:00+9s8157463 0.0 1006618
09:00+12ssw91474100 0.0 1006926
12:00+9wnw71191100 2.1 1008821
15:00+12wnw587098 2.9 10101388
18:00+13wsw48565 0.1 10101460
21:00+9nw356672 0.1 101393
7 may, fri
fri700:00+7ssw22665 0.0 101417
03:00+6ssw22695 0.0 101522
06:00+5s347239 0.0 101552
09:00+11s585888 0.0 1015405
12:00+15s7951100 0.0 10131516
15:00+16s81255100 0.0 10112124
18:00+11s71385100 0.4 1010644
21:00+10sse71589100 0.8 1009495
8 may, sat
sat800:00+10s41097100 3.1 1006532
03:00+12sw51098100 5.0 1005508
06:00+10wnw3895100 2.8 1006376
09:00+9wnw61190100 3.3 1009747
12:00+10wnw81067100 0.1 10111506
15:00+11nw91151100 0.1 10121885
18:00+11nw6106011 0.0 10141775
21:00+6nw49670 0.0 1016236
9 may, sun
sun900:00+4wnw38724 0.0 1018162
03:00+4wnw512854 0.0 1019316
06:00+3wnw411920 0.0 1021309
09:00+8nw68690 0.0 1023784
12:00+11nnw68515 0.0 10241691
15:00+13nnw68435 0.0 10242128
18:00+12nnw46525 0.0 10251898
21:00+8n22625 0.0 102715
10 may, mon
mon1000:00+6nne22625 0.0 102719
03:00+5nne116828 0.0 102810
06:00+5ene22735 0.0 102916
09:00+10ene23595 0.0 1029388
12:00+14ne34460 0.0 10281271
15:00+16ne45430 0.0 10271418
18:00+15ne35550 0.0 10261340
21:00+10ene34730 0.0 102743